Stockton, CA

2:02 AM PST on January 24, 2018 (GMT -0800)
Stockton Metro

Weather History for KSCK - June, 2014

Change the Weather History Date:

Monday, June 2, 2014

  Actual Average Record
Temperature  
Mean Temperature 71 °F -  
Max Temperature 85 °F 85 °F 111 °F (1960)
Min Temperature 57 °F 55 °F 46 °F (2011)
Degree Days  
Heating Degree Days 0 1  
Month to date heating degree days 0 2  
Since 1 June heating degree days 0 2  
Since 1 July heating degree days 2160 2638  
Cooling Degree Days 6 5  
Month to date cooling degree days 12 10  
Year to date cooling degree days 195 129  
Since 1 June cooling degree days 12 10  
Growing Degree Days 20 (Base 50)    
Moisture  
Dew Point 49 °F    
Average Humidity 50    
Maximum Humidity 77    
Minimum Humidity 22    
Precipitation  
Precipitation 0.00 in 0.00 in 0.21 in (1985)
Month to date precipitation 0.00 0.01  
Year to date precipitation 5.79 8.96  
Since 1 July precipitation 7.50  
Snow  
Snow 0.00 in - - ()
Month to date snowfall 0.0  
Since 1 June snowfall 0.0  
Since 1 July snowfall 0.0  
Snow Depth -    
Sea Level Pressure  
Sea Level Pressure 29.81 in    
Wind  
Wind Speed 8 mph (NW)    
Max Wind Speed 18 mph    
Max Gust Speed 24 mph    
Visibility 10 miles    
Events      
T = Trace of Precipitation, MM = Missing Value Source: NWS Daily Summary

Daily Weather History Graph

Daily Weather History Graph

Search for Another Location

Airport or City:

Trip Planner

Search our weather history database for the weather conditions in past years. The results will help you decide how hot, cold, wet, or windy it might be!

Date:

Astronomy

Jun. 02, 2014 Rise Set
Actual Time 5:44 AM PDT 8:22 PM PDT
Civil Twilight 5:13 AM PDT 8:53 PM PDT
Nautical Twilight 4:34 AM PDT 9:31 PM PDT
Astronomical Twilight 3:51 AM PDT 10:14 PM PDT
Moon 10:13 AM PDT (6/2) 11:57 PM PDT (6/2)
Length of Visible Light 15h 39m
Length of Day
14h 38m
Waxing Crescent, 22% of the Moon is Illuminated
Jun 2
Waxing Crescent
Jun 5
First Quarter
Jun 12
Full
Jun 19
Last Quarter
Jun 27
New

Hourly Weather History & Observations

Time (PDT) Temp. Dew Point Humidity Pressure Visibility Wind Dir Wind Speed Gust Speed Precip Events Conditions
12:55 AM 62.1 °F 48.0 °F 60% 29.77 in 10.0 mi NE 4.6 mph - N/A   Clear
1:55 AM 62.1 °F 48.0 °F 60% 29.77 in 10.0 mi NNE 4.6 mph - N/A   Clear
2:55 AM 61.0 °F 46.9 °F 60% 29.77 in 10.0 mi Calm Calm - N/A   Clear
3:55 AM 59.0 °F 44.1 °F 58% 29.76 in 10.0 mi NNW 5.8 mph - N/A   Clear
4:55 AM 60.1 °F 48.9 °F 67% 29.77 in 10.0 mi WNW 6.9 mph - N/A   Clear
5:55 AM 57.0 °F 50.0 °F 77% 29.78 in 10.0 mi NW 8.1 mph - N/A   Clear
6:55 AM 59.0 °F 51.1 °F 75% 29.80 in 10.0 mi NW 10.4 mph - N/A   Clear
7:55 AM 61.0 °F 51.1 °F 70% 29.81 in 10.0 mi NNW 5.8 mph - N/A   Clear
8:55 AM 64.0 °F 50.0 °F 60% 29.82 in 10.0 mi NNW 8.1 mph - N/A   Clear
9:55 AM 68.0 °F 50.0 °F 52% 29.82 in 10.0 mi NNW 8.1 mph - N/A   Clear
10:55 AM 73.4 °F 48.2 °F 41% 29.82 in 10.0 mi WNW 6.9 mph - N/A   Clear
11:55 AM 75.9 °F 48.9 °F 38% 29.82 in 10.0 mi WNW 9.2 mph - N/A   Clear
12:55 PM 79.0 °F 50.0 °F 36% 29.81 in 10.0 mi WNW 10.4 mph 17.3 mph N/A   Clear
1:55 PM 81.0 °F 50.0 °F 34% 29.81 in 10.0 mi WNW 9.2 mph 16.1 mph N/A   Clear
2:55 PM 82.9 °F 48.9 °F 31% 29.80 in 10.0 mi WNW 10.4 mph - N/A   Clear
3:55 PM 82.9 °F 50.0 °F 32% 29.80 in 10.0 mi WNW 16.1 mph 20.7 mph N/A   Clear
4:55 PM 82.9 °F 39.9 °F 22% 29.79 in 10.0 mi West 17.3 mph 24.2 mph N/A   Clear
5:55 PM 80.1 °F 46.9 °F 31% 29.79 in 10.0 mi West 16.1 mph - N/A   Clear
6:55 PM 75.9 °F 51.1 °F 42% 29.80 in 10.0 mi WNW 15.0 mph - N/A   Clear
7:55 PM 70.0 °F 52.0 °F 53% 29.81 in 10.0 mi WNW 15.0 mph - N/A   Clear
8:55 PM 64.9 °F 50.0 °F 58% 29.83 in 10.0 mi WNW 15.0 mph - N/A   Clear
9:55 PM 61.0 °F 51.1 °F 70% 29.85 in 10.0 mi NW 10.4 mph - N/A   Clear
10:55 PM 60.1 °F 51.1 °F 72% 29.86 in 10.0 mi North 5.8 mph - N/A   Clear
11:55 PM 57.9 °F 51.1 °F 78% 29.86 in 10.0 mi NNW 9.2 mph - N/A   Clear